[[{"header":{"parameterUnit":"m.s-1","parameterCategory":1,"la1":30.2992,"la2":30.254,"lo1":-89.0895,"lo2":-89.0443,"dy":0.0025,"dx":0.0025,"nx":19,"ny":19,"refTime":"2026-04-21T21:00:00:Z","depth":0,"parameterNumber":2,"parameterNumberName":"U-component_of_WINDS"},"data":[0,0,0,-2.4821,-2.4822,-2.4885,-2.4886,-2.4982,-2.4983,0,0,0,0,0,0,0,0,0,0,0,-2.4812,-2.4813,-2.4821,-2.4823,-2.4885,-2.4886,-2.4982,-2.4983,0,0,0,0,0,0,0,0,0,0,0,-2.4811,-2.4813,-2.4814,-2.4823,-2.4885,-2.4886,-2.4981,-2.4928,0,0,0,0,0,0,0,0,0,0,-2.4864,-2.4866,-2.4812,-2.4814,-2.4823,-2.4885,-2.4886,-2.4925,-2.4932,-2.496,0,-2.4988,0,-2.4987,-2.499,-2.4991,0,0,0,-2.4815,-2.4861,-2.4869,-2.4814,-2.4824,-2.4885,-2.4855,-2.4929,-2.4936,-2.4968,-2.4989,-2.4992,-2.4989,-2.4991,-2.4992,-2.5179,-2.5181,0,0,-2.4812,-2.4828,-2.4864,-2.4874,-2.4865,-2.4853,-2.4857,-2.4933,-2.4957,-2.499,-2.4994,-2.499,-2.4992,-2.4993,-2.5178,-2.518,0,0,0,-2.4807,-2.4826,-2.4832,-2.487,-2.488,-2.4855,-2.486,-2.4953,-2.4954,-2.4995,-2.4991,-2.4992,-2.4994,-2.5177,-2.5179,-2.5255,0,0,0,-2.4804,-2.4823,-2.4831,-2.4842,-2.4879,-2.4918,-2.4879,-2.4949,-2.4956,-2.4991,-2.4992,-2.4995,-2.5176,-2.5178,-2.525,-2.5288,0,0,0,-2.4804,-2.4823,-2.4836,-2.4843,-2.487,-2.4916,-2.4921,-2.495,-2.4955,-2.4991,-2.4995,-2.5175,-2.5177,-2.5245,-2.528,-2.5342,0,0,0,-2.4809,-2.4903,-2.4837,-2.494,-2.487,-2.4963,-2.492,-2.4988,-2.5028,-2.4993,-2.5176,-2.5179,-2.5244,-2.5276,-2.5337,-2.5396,-2.5423,0,0,-2.4936,-2.4919,-2.4978,-2.4921,-2.5029,-2.4952,-2.5071,-2.5092,-2.5081,-2.5147,-2.5152,-2.5251,-2.528,-2.5341,-2.5564,-2.5585,0,0,0,-2.5023,-2.5066,-2.5091,-2.513,-2.5148,-2.5167,-2.5167,-2.5175,-2.5231,-2.5118,-2.529,-2.5306,-2.5341,-2.5369,-2.5387,-2.5415,-2.5192,-2.5192,-2.5192,-2.5227,-2.5207,-2.5303,-2.529,-2.5328,-2.5328,-2.5357,-2.5367,-2.5336,-2.5376,-2.5396,-2.5534,-2.5567,-2.558,-2.561,-2.5426,-2.5426,-2.5426,-2.5426,-2.5411,-2.5468,-2.5423,-2.55,-2.5478,-2.5543,-2.5546,-2.5521,-2.5578,-2.5518,-2.5547,-2.5483,-2.5604,-2.5629,-2.5432,-2.5431,-2.543,-2.543,-2.5429,-2.5542,-2.5566,-2.5573,-2.5626,-2.567,-2.5653,-2.571,-2.5687,-2.5667,-2.5697,-2.5714,-2.5713,-2.5709,-2.5707,-2.5707,-2.5708,-2.5708,-2.5708,-2.5709,-2.5675,-2.5681,-2.5731,-2.5757,-2.5779,-2.5804,-2.5804,-2.5825,-2.5842,-2.5822,-2.5822,-2.5786,-2.5619,-2.5578,-2.5716,-2.5715,-2.5714,-2.5713,-2.5713,-2.5869,-2.5821,-2.5899,-2.5921,-2.5949,-2.5993,-2.5964,-2.6008,-2.6021,-2.605,-2.6008,-2.5888,-2.5868,-2.5854,-2.5819,-2.6012,-2.6012,-2.6012,-2.6012,-2.598,-2.5967,-2.6041,-2.6077,-2.6109,-2.609,-2.6178,-2.6179,-2.6172,-2.6179,-2.6148,-2.61,-2.6087,-2.6075,-2.6056,-2.6023,-2.6263,-2.6263,-2.6264,-2.6098,-2.6087,-2.6167,-2.6159,-2.6179,-2.6197,-2.6279,-2.6322,-2.6304,-2.6273,-2.6184,-2.6174,-2.6096,-2.6072,-2.604,-2.601,-2.595,0,0]},{"header":{"parameterUnit":"m.s-1","parameterCategory":1,"la1":30.2992,"la2":30.254,"lo1":-89.0895,"lo2":-89.0443,"dy":0.0025,"dx":0.0025,"nx":19,"ny":19,"refTime":"2026-04-21T21:00:00:Z","depth":0,"parameterNumber":3,"parameterNumberName":"V-component_of_WINDS"},"data":[0,0,0,2.7567,2.7568,2.7613,2.7613,2.768,2.768,0,0,0,0,0,0,0,0,0,0,0,2.756,2.7561,2.7567,2.7568,2.7613,2.7613,2.7679,2.768,0,0,0,0,0,0,0,0,0,0,0,2.756,2.7561,2.7561,2.7568,2.7613,2.7613,2.7679,2.7642,0,0,0,0,0,0,0,0,0,0,2.7596,2.7597,2.756,2.7562,2.7569,2.7613,2.7613,2.764,2.7644,2.7663,0,2.7683,0,2.7683,2.7685,2.7686,0,0,0,2.7563,2.7594,2.76,2.7562,2.7569,2.7613,2.7591,2.7642,2.7647,2.7669,2.7684,2.7686,2.7684,2.7686,2.7686,2.7817,2.7818,0,0,2.756,2.7572,2.7597,2.7603,2.7599,2.759,2.7593,2.7645,2.7662,2.7684,2.7688,2.7685,2.7686,2.7687,2.7816,2.7817,0,0,0,2.7557,2.757,2.7575,2.7601,2.7609,2.7591,2.7595,2.7659,2.766,2.7688,2.7686,2.7687,2.7688,2.7815,2.7816,2.787,0,0,0,2.7555,2.7568,2.7574,2.7581,2.7608,2.7635,2.7608,2.7656,2.7662,2.7686,2.7687,2.7689,2.7814,2.7816,2.7866,2.7892,0,0,0,2.7555,2.7568,2.7577,2.7582,2.7602,2.7634,2.7637,2.7657,2.7661,2.7686,2.7689,2.7814,2.7816,2.7863,2.7887,2.7929,0,0,0,2.7558,2.7624,2.7578,2.7651,2.7602,2.7667,2.7637,2.7685,2.7713,2.7687,2.7814,2.7816,2.7862,2.7884,2.7926,2.7965,2.7983,0,0,2.7647,2.7635,2.7677,2.7637,2.7714,2.7659,2.7743,2.7757,2.7749,2.7794,2.7797,2.7867,2.7887,2.7928,2.8083,2.8097,0,0,0,2.7709,2.7739,2.7757,2.7784,2.7797,2.781,2.781,2.7815,2.7853,2.7775,2.7894,2.7905,2.7929,2.7947,2.796,2.7979,2.7826,2.7826,2.7825,2.7851,2.7837,2.7905,2.7896,2.7923,2.7923,2.7942,2.7949,2.7927,2.7955,2.7968,2.8064,2.8086,2.8095,2.8115,2.7989,2.799,2.799,2.799,2.7979,2.8019,2.7988,2.8043,2.8027,2.8072,2.8074,2.8057,2.8095,2.8053,2.8074,2.8028,2.8111,2.8128,2.7994,2.7993,2.7993,2.7992,2.7992,2.807,2.8086,2.8092,2.8129,2.816,2.8148,2.8187,2.8171,2.8157,2.8177,2.8188,2.8187,2.8183,2.8184,2.8184,2.8184,2.8185,2.8185,2.8185,2.8161,2.8165,2.82,2.8219,2.8234,2.8252,2.8252,2.8266,2.8277,2.8262,2.8262,2.8236,2.8123,2.8094,2.819,2.8189,2.8189,2.8188,2.8188,2.8294,2.8261,2.8315,2.833,2.835,2.838,2.836,2.839,2.8399,2.8418,2.8388,2.8307,2.8293,2.8283,2.8259,2.8392,2.8392,2.8392,2.8392,2.8369,2.836,2.8411,2.8436,2.8458,2.8446,2.8505,2.8505,2.85,2.8505,2.8483,2.845,2.8441,2.8432,2.8419,2.8396,2.8561,2.8561,2.8561,2.8449,2.8442,2.8496,2.8491,2.8506,2.8518,2.8573,2.8601,2.8589,2.8568,2.8507,2.85,2.8447,2.843,2.8407,2.8387,2.8344,0,0]}]]